Weather History for Medford, WI

Change the Weather History Date:

Friday, October 4, 2013

  Actual Average Record
Temperature  
Mean Temperature 53 °F -  
Max Temperature 54 °F 61 °F 78 °F (2005)
Min Temperature 52 °F 38 °F 21 °F (1989)
Degree Days  
Heating Degree Days 12    
Growing Degree Days 3 (Base 50)    
Moisture  
Dew Point 52 °F    
Average Humidity 95    
Maximum Humidity 97    
Minimum Humidity 92    
Precipitation  
Precipitation 0.22 in - - ()
Sea Level Pressure  
Sea Level Pressure 30.00 in    
Wind  
Wind Speed 9 mph (ENE)    
Max Wind Speed 16 mph    
Max Gust Speed 22 mph    
Visibility 8 miles    
Events Rain , Thunderstorm    
Averages and records for this station are not official NWS values.
T = Trace of Precipitation, MM = Missing Value Source: NWS Daily Summary

Daily Weather History Graph

Daily Weather History Graph

Search for Another Location

Airport:

Trip Planner

Search our weather history database for the weather conditions in past years. The results will help you decide how hot, cold, wet, or windy it might be!

Date:

Astronomy

Oct. 04, 2013 Rise Set
Actual Time 7:03 AM CDT 6:35 PM CDT
Civil Twilight 6:33 AM CDT 7:04 PM CDT
Nautical Twilight 5:59 AM CDT 7:38 PM CDT
Astronomical Twilight 5:25 AM CDT 8:13 PM CDT
Moon 6:39 AM CDT (10/4) 6:16 PM CDT (10/4)
Length of Visible Light 12h 30m
Length of Day
11h 32m
Waning Crescent, 0% of the Moon is Illuminated
Oct 4
Waning Crescent
Oct 4
New
Oct 11
First Quarter
Oct 18
Full
Oct 26
Last Quarter

Hourly Weather History & Observations

Time (CDT) Temp. Dew Point Humidity Pressure Visibility Wind Dir Wind Speed Gust Speed Precip Events Conditions
12:15 AM 54.5 °F 53.6 °F 97% 29.93 in 10.0 mi ENE 6.9 mph - N/A   Overcast
12:35 AM 54.1 °F 53.2 °F 97% 29.93 in 10.0 mi East 5.8 mph - N/A   Overcast
12:55 AM 54.1 °F 53.2 °F 97% 29.93 in 10.0 mi ENE 6.9 mph - N/A Thunderstorm Overcast
1:15 AM 54.1 °F 53.1 °F 96% 29.94 in 10.0 mi East 6.9 mph - N/A   Overcast
1:35 AM 54.0 °F 52.9 °F 96% 29.94 in 10.0 mi ENE 6.9 mph - N/A Rain Rain
1:55 AM 53.8 °F 52.7 °F 96% 29.94 in 10.0 mi NE 5.8 mph - N/A   Drizzle
2:15 AM 53.8 °F 52.7 °F 96% 29.96 in 10.0 mi NE 4.6 mph - N/A   Overcast
2:35 AM 53.6 °F 52.7 °F 97% 29.94 in 10.0 mi ENE 9.2 mph - N/A   Overcast
2:55 AM 53.6 °F 52.7 °F 97% 29.95 in 10.0 mi ENE 5.8 mph - N/A   Overcast
3:15 AM 53.6 °F 52.7 °F 97% 29.95 in 10.0 mi NE 8.1 mph - N/A   Overcast
3:35 AM 53.6 °F 52.3 °F 95% 29.95 in 10.0 mi NE 9.2 mph - N/A   Overcast
3:55 AM 53.2 °F 52.0 °F 95% 29.96 in 10.0 mi NE 8.1 mph - N/A   Overcast
4:15 AM 52.7 °F 51.6 °F 96% 29.96 in 10.0 mi ENE 10.4 mph - N/A   Light Drizzle
4:35 AM 52.7 °F 51.6 °F 96% 29.98 in 10.0 mi NE 6.9 mph - N/A   Overcast
4:55 AM 52.3 °F 51.3 °F 96% 29.98 in 10.0 mi NE 8.1 mph - N/A   Overcast
5:15 AM 52.3 °F 51.1 °F 95% 29.98 in 10.0 mi ENE 9.2 mph - N/A   Overcast
5:35 AM 52.2 °F 50.9 °F 95% 29.98 in 10.0 mi NE 8.1 mph - N/A   Overcast
5:55 AM 52.2 °F 50.9 °F 95% 29.98 in 10.0 mi NE 9.2 mph - N/A   Overcast
6:15 AM 52.0 °F 51.1 °F 97% 29.98 in 5.0 mi ENE 10.4 mph - N/A   Overcast
6:35 AM 52.0 °F 51.1 °F 97% 29.99 in 5.0 mi ENE 9.2 mph - N/A   Overcast
6:55 AM 52.0 °F 50.9 °F 96% 30.00 in 10.0 mi ENE 9.2 mph - N/A   Overcast
7:35 AM 52.2 °F 50.9 °F 95% 30.00 in 10.0 mi ENE 6.9 mph - N/A   Overcast
7:55 AM 52.2 °F 50.9 °F 95% 30.00 in 10.0 mi ENE 10.4 mph - N/A   Overcast
8:15 AM 52.2 °F 50.9 °F 95% 30.00 in 10.0 mi ENE 12.7 mph - N/A   Overcast
8:35 AM 52.3 °F 50.9 °F 95% 30.00 in 10.0 mi ENE 9.2 mph - N/A   Overcast
8:55 AM 52.7 °F 50.9 °F 94% 30.01 in 10.0 mi East 8.1 mph - N/A   Overcast
9:15 AM 52.7 °F 50.9 °F 94% 30.02 in 10.0 mi East 9.2 mph - N/A   Overcast
9:35 AM 52.7 °F 50.9 °F 94% 30.02 in 10.0 mi East 9.2 mph - N/A   Overcast
9:55 AM 52.7 °F 50.9 °F 94% 30.02 in 10.0 mi ENE 5.8 mph - N/A   Overcast
10:15 AM 52.7 °F 50.9 °F 94% 30.02 in 10.0 mi ENE 10.4 mph - N/A   Overcast
10:35 AM 52.7 °F 50.9 °F 94% 30.02 in 10.0 mi ENE 10.4 mph 16.1 mph N/A   Overcast
10:55 AM 53.1 °F 51.1 °F 93% 30.00 in 10.0 mi NE 15.0 mph - N/A   Overcast
11:15 AM 52.7 °F 51.1 °F 94% 30.00 in 10.0 mi NE 12.7 mph 18.4 mph N/A   Overcast
11:35 AM 53.6 °F 51.4 °F 92% 30.01 in 10.0 mi NE 12.7 mph 20.7 mph N/A   Overcast
11:55 AM 53.6 °F 51.8 °F 94% 30.02 in 10.0 mi NE 13.8 mph - N/A   Overcast
12:15 PM 53.6 °F 51.8 °F 94% 30.02 in 10.0 mi ENE 12.7 mph 21.9 mph N/A   Overcast
12:35 PM 53.6 °F 51.8 °F 94% 30.03 in 10.0 mi ENE 15.0 mph - N/A   Overcast
12:55 PM 53.6 °F 52.0 °F 94% 30.03 in 10.0 mi East 10.4 mph - N/A Rain Light Rain
1:15 PM 53.6 °F 52.3 °F 95% 30.03 in 7.0 mi ENE 10.4 mph - 0.01 in Rain Light Rain
1:35 PM 53.6 °F 52.7 °F 97% 30.03 in 5.0 mi ENE 9.2 mph - 0.02 in Rain Light Rain
1:55 PM 53.6 °F 52.7 °F 97% 30.02 in 2.0 mi ENE 10.4 mph - 0.10 in Rain Light Rain
2:15 PM 54.0 °F 52.9 °F 96% 30.03 in 3.0 mi ESE 6.9 mph - 0.05 in Rain Rain
2:35 PM 54.1 °F 53.1 °F 96% 30.03 in 5.0 mi East 8.1 mph - 0.07 in Rain Light Rain
2:55 PM 54.5 °F 53.2 °F 96% 30.03 in 7.0 mi East 5.8 mph - 0.07 in Rain Rain
3:15 PM 54.5 °F 53.1 °F 95% 30.02 in 7.0 mi East 9.2 mph - N/A Rain Light Rain
3:35 PM 54.1 °F 53.1 °F 96% 30.01 in 7.0 mi East 11.5 mph 17.3 mph 0.01 in   Overcast
3:55 PM 54.1 °F 52.9 °F 95% 30.02 in 7.0 mi East 10.4 mph 16.1 mph 0.01 in   Overcast
4:35 PM 54.1 °F 52.9 °F 95% 30.03 in 10.0 mi East 10.4 mph 17.3 mph N/A   Overcast
4:55 PM 54.1 °F 53.1 °F 96% 30.03 in 5.0 mi East 9.2 mph - N/A   Overcast
5:15 PM 54.1 °F 53.1 °F 96% 30.02 in 4.0 mi East 11.5 mph 17.3 mph N/A   Overcast
5:35 PM 54.0 °F 53.1 °F 97% 30.02 in 4.0 mi East 10.4 mph - N/A   Overcast
5:55 PM 54.0 °F 52.9 °F 96% 30.02 in 5.0 mi East 12.7 mph 18.4 mph N/A   Overcast
6:15 PM 53.8 °F 52.9 °F 97% 30.02 in 5.0 mi East 12.7 mph 18.4 mph N/A   Overcast
6:35 PM 53.6 °F 52.7 °F 97% 30.01 in 5.0 mi East 11.5 mph 19.6 mph N/A   Overcast
6:55 PM 53.6 °F 52.7 °F 97% 30.01 in 7.0 mi East 10.4 mph 20.7 mph N/A   Overcast
7:15 PM 53.6 °F 52.7 °F 97% 30.00 in 5.0 mi East 16.1 mph 20.7 mph N/A   Overcast
7:35 PM 53.6 °F 52.7 °F 97% 30.01 in 4.0 mi East 15.0 mph 21.9 mph N/A   Overcast
7:55 PM 53.6 °F 52.7 °F 97% 30.01 in 7.0 mi East 11.5 mph 19.6 mph N/A   Overcast
8:15 PM 53.4 °F 52.3 °F 96% 30.02 in 5.0 mi East 12.7 mph 18.4 mph N/A   Overcast
8:35 PM 53.2 °F 52.5 °F 97% 30.03 in 4.0 mi East 11.5 mph 18.4 mph N/A   Overcast
8:55 PM 52.9 °F 52.2 °F 97% 30.02 in 4.0 mi East 10.4 mph 17.3 mph N/A   Overcast
9:15 PM 53.1 °F 51.8 °F 95% 30.01 in 7.0 mi East 11.5 mph 18.4 mph N/A   Overcast
9:35 PM 53.2 °F 51.8 °F 95% 30.02 in 10.0 mi East 12.7 mph 18.4 mph N/A   Overcast
9:55 PM 53.4 °F 51.3 °F 92% 30.04 in 10.0 mi East 9.2 mph 16.1 mph N/A   Overcast
10:15 PM 53.2 °F 51.3 °F 93% 30.03 in 10.0 mi East 11.5 mph - N/A   Overcast
10:35 PM 53.1 °F 51.3 °F 94% 30.02 in 10.0 mi East 13.8 mph 18.4 mph N/A   Drizzle
10:55 PM 52.9 °F 51.3 °F 94% 30.02 in 10.0 mi East 13.8 mph 18.4 mph N/A   Light Drizzle
11:15 PM 52.9 °F 51.4 °F 95% 30.01 in 10.0 mi East 12.7 mph 20.7 mph N/A   Overcast
11:35 PM 52.9 °F 51.6 °F 95% 30.01 in 10.0 mi East 10.4 mph 17.3 mph 0.01 in Rain Rain
11:55 PM 52.7 °F 51.8 °F 97% 30.01 in 10.0 mi East 10.4 mph 17.3 mph 0.04 in Rain , Thunderstorm Light Thunderstorms and Rain